Aeroporto :
LOGIN :

Iscrizione | Disclaimer

   EN    FR    IT 

 










Sommario :    VFR   VFR Marginale   IFR   IFR Intensivo   IFR Molto Intensivo
Visibilità : 
Base nubi : 
>= 8 km
>= 3000ft
5 / 8 km
1000 / 3000 ft
1500m / 5 km
500 / 1000 ft
800 / 1500m
200 / 500 ft
< 800m
< 200 ft
Simboli :   Temporali  Nebbia  Neve Forte  Precipitazioni Forti  Vento > 20 kt
SIGMETs :   Varie  Temporali  Ghiacco  Turbolenza  Onda orograficha  Ceneri Vulcaniche






- Altitudine del aeroporto : 116 ft
- Codice IATA : ISC


EGHE - Scilly Isles / St Mary's

ULTIMO METAR :
  • 151050Z 29009KT 9999 SCT014 16/13 Q1020

METARs OBSOLETI :
  • 151020Z 31011KT 9999 SCT018 16/13 Q1020
  • 150950Z 30010KT 9999 SCT016 16/13 Q1020
  • 150920Z 31011KT 9999 SCT013 16/13 Q1020
  • 150850Z 31011KT 9999 BKN014 15/12 Q1019
  • 150820Z 31012KT 9999 BKN015 15/12 Q1019

TAF TAF EGHE
Valido dal 15 a 09 ore il 15 a 18 ore UTC


150800Z 1509/1518 31015KT 9999 SCT020
PROB40
TEMPO 1509/1518 BKN014



MetMap, La meteo Aeronautica in un colpo d'occhio ! - Copyright ORBIFLY Dicembre 2007 - Disclaimer

ORBIFLY MET'MAP TEAM :

Programmazione e sviluppo : Alexandra Zaïnal
Concezione : Baudouin d'Aumeries
Aiuto per la programmazione : Marc-Olivier Méhu
Supporto tecnico e logistico : Manuel Goepfert
Aiuto per la traduzione : Arnaldo La Scala

Contatto : metmap@orbifly.com




FONTI E CREDITI :

   NOAA